Tracking 22458 objects as of 4-Mar-2021
HD Live streaming from Space Station
objects crossing your sky now

CZ-4 DEB

Track CZ-4 DEB now!
10-day predictions


NORAD ID: 29509
Int'l Code: 2006-046E
Perigee: 562.3 km
Apogee: 623.2 km
Inclination: 97.9 °
Period: 96.4 minutes
Semi major axis: 6963 km
RCS: 0.0058 m2 (small)
Launch date: October 23, 2006
Source: People's Republic of China (PRC)
Launch site: Taiyaun Space Center, China (TSC)

Note: This is SATELLITE DEBRIS
aabbcc
Your satellite tracking list
Your tracking list is empty




NASA's NSSDC Master Catalog

Two Line Element Set (TLE):
1 29509U 06046E   21062.53219728 -.00000008  00000-0  50138-5 0  9990
2 29509  97.9219  97.7568 0043728 208.3147 151.5695 14.93944514779273
Source of the keplerian elements: AFSPC